Regional Weather Roundup
Issued by NWS

Home | Current Version | Previous Version | Text Only | Print | Product List | Glossary Off
Versions: 1 2 3 4 5 6 7 8 9 10 11 12 13 14 15 16 17 18 19 20 21 22 23 24 25 26 27 28 29 30 31 32 33 34 35 36 37 38 39 40 41 42 43 44 45 46 47 48 49 50

584
ASUS43 KLMK 290502
RWRKY
KENTUCKY REGIONAL WEATHER ROUNDUP
NATIONAL WEATHER SERVICE LOUISVILLE KY
100 AM EDT FRI APR 29 2016

NOTE "FAIR" INDICATES FEW OR NO CLOUDS BELOW 12,000 FEET
WITH NO SIGNIFICANT WEATHER AND/OR OBSTRUCTIONS TO VISIBILITY.

KYZ001>023-026-027-061>063-070>075-290600-
WESTERN AND SOUTH CENTRAL KENTUCKY

CITY           SKY/WX    TMP DP  RH WIND       PRES   REMARKS
PADUCAH        CLEAR     57  51  80 W5        29.98R
HENDERSON      CLEAR     64  50  59 N3        29.98S
OWENSBORO      CLEAR     63  53  69 CALM      30.00R
HOPKINSVILLE   NOT AVBL
BOWLING GREEN  CLEAR     64  51  62 CALM      29.99R
GLASGOW        NOT AVBL
$$

KYZ024-025-028>034-038-045-046-053-290600-
NORTH CENTRAL KENTUCKY

CITY           SKY/WX    TMP DP  RH WIND       PRES   REMARKS
LOUISVILLE/SDF CLEAR     64  50  60 NW6       29.97R
LOUISVILLE/LOU CLEAR     64  50  60 NW5       29.98R
FORT KNOX      NOT AVBL
$$

KYZ035>037-039>044-047>052-055>060-089>105-290600-
NORTHEAST KENTUCKY

CITY           SKY/WX    TMP DP  RH WIND       PRES   REMARKS
LEXINGTON      CLEAR     57  48  72 SW6       29.97R
COVINGTON      CLEAR     58  57  97 N5        29.95R FOG
FRANKFORT      CLEAR     56  49  77 CALM      29.96R
$$

KYZ054-064>069-076>088-106>120-290600-
SOUTHEAST KENTUCKY

CITY           SKY/WX    TMP DP  RH WIND       PRES   REMARKS
JACKSON        CLEAR     65  51  60 W5        29.98R
LONDON         CLEAR     61  54  77 CALM      29.98S
SOMERSET       NOT AVBL
MIDDLESBORO    CLEAR     68  54  60 CALM      29.98R
MONTICELLO     CLEAR     55  54  96 NW9       30.02R
$$





USA.gov is the U.S. government's official web portal to all federal, state and local government web resources and services.